Voltar ao catálogo

SERT3

AtivoCiênciaSSO
NORAD 68499·PAYLOAD·🇺🇸 United States

Lançado Mar 30, 2026 de Vandenberg Space Force Base

Loading…

Próximas Passagens (próximas 24 horas)

TLE

AtualizadoSource: Space-Track

Época: Sep 14, 2026, 14:47 UTC

1 68499U 26067CM  26257.61606347  .00001249  00000-0  12944-3 0  9991
2 68499  97.7671 214.4380 0002890  95.9518 264.2030 14.91772552 25055

Acompanhe SERT3 em tempo real com AllMySat

Download on the App Store